Location: Boca de Tacagua
(10.5333°N, 66.9833°W)
Time: 20:58:20
(UTC+00:00)

X-37B - Pass Details

Date: 30 November 2022
Orbit: 277 x 277 km, 45.0° (Epoch: 01 November)

Event Time Altitude Azimuth Distance (km) Brightness Sun altitude
Exits shadow 09:01:04 12° 53° (NE) 969 3.0 -21.3°
Drops below altitude 10° 09:01:55 10° 74° (ENE) 1,088 3.6 -21.1°
Sets 09:04:31 0° 106° (ESE) 1,900 5.7 -20.5°
